Weather in Kyardla

Estonia     58˚59′43″N   22˚44′43″E
temp.,
°C
wind,
m/s
gust,
m/s
humid.,
%
clouds,
%
prec.,
mm/h
press.,
hPa
HPBL,
m
29 november, sun
sun2923:00+3˚e577599 0.1 1027699
02:00+2˚e467492 0.1 1028712
05:00+2˚e457599 0.1 1028649
08:00+2˚e4577100 0.1 1028642
11:00+2˚ese4580100 0.1 1027637
14:00+2˚e347881 0.1 1027605
17:00+1˚e358116 0.0 1026338
20:00e358517 0.0 1025350
30 november, mon
mon3023:00e468380 0.0 1024584
02:00e248587 0.0 1023422
05:00ssw118586 0.0 1020186
08:00wsw119090 0.0 1020102
11:00sw2397100 0.2 1018149
14:00+1˚ssw3497100 0.8 1017174
17:00+2˚wsw5897100 1.0 1015491
20:00+1˚ssw249199 1.3 1015260
1 december, tue
tue123:00+3˚sw4986100 0.4 1015455
02:00+3˚ssw4984100 0.7 1015471
05:00+3˚ssw5986100 0.1 1015482
08:00+5˚sw499398 0.8 1017528
11:00+5˚sw4982100 0.1 1018633
14:00+5˚ssw5885100 0.2 1020464
17:00+5˚sw4890100 0.0 1021358
20:00+6˚sw51092100 0.9 1024618
2 december, wed
wed223:00+6˚sw5992100 3.4 1024616
02:00+5˚sw4990100 7.6 1026623
05:00+5˚sw5987100 2.4 1026618
08:00+5˚ssw4884100 2.9 1026540
11:00+4˚s588797 0.0 1027492
14:00+3˚s578376 0.0 1026507
17:00+2˚s587949 0.0 1026525
20:00+1˚s587825 0.0 1026509
3 december, thu
thu323:00+1˚s597869 0.0 1025645
02:00+1˚s597784 0.0 1024654
05:00+2˚s5977100 0.0 1023615
08:00+2˚sse5983100 0.0 1022738
11:00+2˚sse5888100 0.1 1022693
14:00+2˚sse6988100 0.4 1022697
17:00+1˚se5881100 0.1 1021764
20:00+1˚se5996100 0.3 1021530